TimeEST,TemperatureF,Dew PointF,Humidity,Sea Level PressureIn,VisibilityMPH,Wind Direction,Wind SpeedMPH,Gust SpeedMPH,PrecipitationIn,Events,Conditions,WindDirDegrees,DateUTC
12:15 AM,29.5,29.5,100,30.14,10.0,Calm,Calm,-,N/A,,Clear,0,2012-11-23 05:15:00
12:35 AM,28.4,28.4,100,30.13,10.0,Calm,Calm,-,N/A,,Clear,0,2012-11-23 05:35:00
12:55 AM,29.3,29.3,100,30.13,10.0,Calm,Calm,-,N/A,,Clear,0,2012-11-23 05:55:00
1:15 AM,28.8,28.8,100,30.13,10.0,Calm,Calm,-,N/A,,Clear,0,2012-11-23 06:15:00
1:35 AM,28.8,28.8,100,30.13,10.0,Calm,Calm,-,N/A,,Clear,0,2012-11-23 06:35:00
1:55 AM,28.4,28.4,100,30.12,10.0,Calm,Calm,-,N/A,,Clear,0,2012-11-23 06:55:00
2:15 AM,27.9,27.9,100,30.12,10.0,Calm,Calm,-,N/A,,Clear,0,2012-11-23 07:15:00
2:35 AM,27.7,27.7,100,30.11,10.0,Calm,Calm,-,N/A,,Clear,0,2012-11-23 07:35:00
2:55 AM,27.0,27.0,100,30.10,10.0,Calm,Calm,-,N/A,,Clear,0,2012-11-23 07:55:00
3:15 AM,27.9,27.9,100,30.11,10.0,Calm,Calm,-,N/A,,Clear,0,2012-11-23 08:15:00
3:35 AM,29.3,29.3,100,30.09,10.0,Calm,Calm,-,N/A,,Clear,0,2012-11-23 08:35:00
3:55 AM,27.3,27.3,100,30.09,10.0,Calm,Calm,-,N/A,,Clear,0,2012-11-23 08:55:00
4:15 AM,27.3,27.3,100,30.08,10.0,Calm,Calm,-,N/A,,Clear,0,2012-11-23 09:15:00
4:35 AM,28.0,28.0,100,30.08,10.0,Calm,Calm,-,N/A,,Clear,0,2012-11-23 09:35:00
4:55 AM,25.7,25.7,100,30.08,10.0,Calm,Calm,-,N/A,,Clear,0,2012-11-23 09:55:00
5:15 AM,26.1,26.1,100,30.08,10.0,Calm,Calm,-,N/A,,Clear,0,2012-11-23 10:15:00
5:35 AM,25.3,25.3,100,30.07,10.0,Calm,Calm,-,N/A,,Clear,0,2012-11-23 10:35:00
5:55 AM,27.1,27.1,100,30.05,10.0,Calm,Calm,-,N/A,,Clear,0,2012-11-23 10:55:00
6:15 AM,26.2,26.2,100,30.05,10.0,Calm,Calm,-,N/A,,Clear,0,2012-11-23 11:15:00
6:35 AM,25.9,25.9,100,30.05,10.0,Calm,Calm,-,N/A,,Clear,0,2012-11-23 11:35:00
6:55 AM,26.6,26.6,100,30.05,10.0,Calm,Calm,-,N/A,,Clear,0,2012-11-23 11:55:00
7:15 AM,25.5,25.5,100,30.05,10.0,Calm,Calm,-,N/A,,Clear,0,2012-11-23 12:15:00
7:35 AM,27.3,27.3,100,30.04,10.0,Calm,Calm,-,N/A,,Clear,0,2012-11-23 12:35:00
8:15 AM,31.5,31.5,100,30.03,10.0,Calm,Calm,-,N/A,,Clear,0,2012-11-23 13:15:00
8:35 AM,33.4,33.4,100,30.02,10.0,Calm,Calm,-,N/A,,Clear,0,2012-11-23 13:35:00
8:55 AM,37.6,36.3,95,30.00,10.0,Calm,Calm,-,N/A,,Clear,0,2012-11-23 13:55:00
9:15 AM,41.2,37.8,88,30.01,10.0,Calm,Calm,-,N/A,,Clear,0,2012-11-23 14:15:00
9:35 AM,45.1,38.7,78,30.00,10.0,WSW,4.6,-,N/A,,Clear,240,2012-11-23 14:35:00
9:55 AM,47.3,36.9,67,29.99,10.0,SW,6.9,-,N/A,,Clear,220,2012-11-23 14:55:00
10:15 AM,49.3,37.0,63,29.99,10.0,SW,8.1,-,N/A,,Clear,220,2012-11-23 15:15:00
10:35 AM,50.9,37.8,61,29.96,10.0,Calm,Calm,-,N/A,,Clear,0,2012-11-23 15:35:00
10:55 AM,53.1,38.7,58,29.95,10.0,South,5.8,-,N/A,,Clear,170,2012-11-23 15:55:00
11:15 AM,54.7,39.4,56,29.94,10.0,South,4.6,-,N/A,,Clear,190,2012-11-23 16:15:00
11:35 AM,54.9,38.1,53,29.92,10.0,SW,5.8,-,N/A,,Clear,220,2012-11-23 16:35:00
11:55 AM,57.6,39.6,51,29.92,10.0,WSW,4.6,-,N/A,,Clear,240,2012-11-23 16:55:00
12:15 PM,59.2,40.1,49,29.89,10.0,Calm,Calm,-,N/A,,Clear,0,2012-11-23 17:15:00
12:35 PM,60.8,40.8,48,29.88,10.0,South,4.6,-,N/A,,Clear,190,2012-11-23 17:35:00
12:55 PM,63.5,42.3,46,29.86,10.0,SSW,4.6,-,N/A,,Clear,200,2012-11-23 17:55:00
1:15 PM,64.8,43.3,46,29.85,10.0,SSW,6.9,-,N/A,,Clear,210,2012-11-23 18:15:00
1:35 PM,63.9,43.2,47,29.83,10.0,South,4.6,-,N/A,,Clear,190,2012-11-23 18:35:00
1:55 PM,65.3,44.2,46,29.82,10.0,SW,8.1,-,N/A,,Clear,220,2012-11-23 18:55:00
2:15 PM,66.0,44.1,45,29.80,10.0,South,5.8,-,N/A,,Clear,190,2012-11-23 19:15:00
2:35 PM,65.7,43.9,45,29.79,10.0,SSW,5.8,-,N/A,,Clear,210,2012-11-23 19:35:00
2:55 PM,67.1,44.1,43,29.79,10.0,SSW,9.2,-,N/A,,Clear,210,2012-11-23 19:55:00
3:15 PM,65.7,45.1,47,29.78,10.0,SSW,5.8,-,N/A,,Clear,200,2012-11-23 20:15:00
3:35 PM,65.3,44.6,47,29.78,10.0,South,5.8,-,N/A,,Clear,190,2012-11-23 20:35:00
3:55 PM,64.4,44.6,49,29.78,10.0,South,6.9,-,N/A,,Scattered Clouds,190,2012-11-23 20:55:00
4:15 PM,63.0,43.7,49,29.77,10.0,South,3.5,-,N/A,,Scattered Clouds,170,2012-11-23 21:15:00
4:35 PM,62.6,44.1,51,29.77,10.0,South,3.5,-,N/A,,Mostly Cloudy,190,2012-11-23 21:35:00
4:55 PM,58.6,44.2,59,29.77,10.0,South,3.5,-,N/A,,Scattered Clouds,190,2012-11-23 21:55:00
5:15 PM,56.3,43.9,63,29.76,10.0,Calm,Calm,-,N/A,,Mostly Cloudy,0,2012-11-23 22:15:00
5:35 PM,53.8,44.6,71,29.77,10.0,Calm,Calm,-,N/A,,Overcast,0,2012-11-23 22:35:00
5:55 PM,55.0,46.0,72,29.77,10.0,Calm,Calm,-,N/A,,Mostly Cloudy,0,2012-11-23 22:55:00
6:15 PM,53.4,46.2,77,29.77,10.0,Calm,Calm,-,N/A,,Mostly Cloudy,0,2012-11-23 23:15:00
6:35 PM,52.2,46.4,81,29.78,10.0,NNW,10.4,-,N/A,,Mostly Cloudy,330,2012-11-23 23:35:00
6:55 PM,57.0,45.3,65,29.78,10.0,North,4.6,-,N/A,,Mostly Cloudy,10,2012-11-23 23:55:00
7:35 PM,50.4,43.9,78,29.78,10.0,Calm,Calm,-,N/A,,Scattered Clouds,0,2012-11-24 00:35:00
7:55 PM,48.0,44.2,87,29.79,10.0,Calm,Calm,-,N/A,,Mostly Cloudy,0,2012-11-24 00:55:00
8:15 PM,49.6,45.5,86,29.80,10.0,Calm,Calm,-,N/A,,Overcast,0,2012-11-24 01:15:00
8:35 PM,52.7,46.6,80,29.81,10.0,WNW,6.9,-,N/A,,Overcast,290,2012-11-24 01:35:00
8:55 PM,57.4,42.1,57,29.81,10.0,WNW,16.1,20.7,N/A,,Mostly Cloudy,300,2012-11-24 01:55:00
9:15 PM,56.1,38.3,51,29.82,10.0,WNW,18.4,28.8,N/A,,Scattered Clouds,290,2012-11-24 02:15:00
9:35 PM,55.4,38.1,52,29.82,10.0,WNW,17.3,26.5,N/A,,Clear,290,2012-11-24 02:35:00
9:55 PM,54.9,35.8,49,29.81,10.0,WNW,23.0,35.7,N/A,,Clear,290,2012-11-24 02:55:00
10:15 PM,54.1,35.1,49,29.82,10.0,WNW,23.0,29.9,N/A,,Clear,290,2012-11-24 03:15:00
10:35 PM,54.0,35.4,50,29.82,10.0,WNW,16.1,26.5,N/A,,Clear,290,2012-11-24 03:35:00
10:55 PM,52.2,35.6,53,29.82,10.0,WNW,8.1,-,N/A,,Clear,290,2012-11-24 03:55:00
11:15 PM,51.1,35.6,55,29.82,10.0,West,11.5,-,N/A,,Clear,280,2012-11-24 04:15:00
11:35 PM,50.9,36.3,57,29.84,10.0,WNW,10.4,16.1,N/A,,Clear,300,2012-11-24 04:35:00
11:55 PM,50.4,35.4,57,29.83,10.0,WNW,18.4,23.0,N/A,,Clear,300,2012-11-24 04:55:00